Location: Poughquag
(41.6090°N, 73.6820°W)
Time: 13:04:20
(UTC-04:00)

DIWATA 2B (PO-101) - Pass Details

Date: 30 May 2024
Orbit: 574 x 588 km, 98.1° (Epoch: 14 June)

Event Time Altitude Azimuth Distance (km) Brightness Sun altitude
Rises 04:15:11 0° 162° (SSE) 2,783 ? -11.1°
Reaches altitude 10° 04:17:20 10° 160° (SSE) 1,887 ? -10.8°
Maximum altitude 04:21:24 76° 75° (ENE) 599 ? -10.2°
Drops below altitude 10° 04:25:30 10° 350° (N) 1,895 ? -9.6°
Sets 04:27:40 0° 349° (N) 2,796 ? -9.3°
